Regional Weather Roundup
Issued by NWS Charleston, WV

Home | Current Version | Previous Version | Graphics & Text | Print | Product List | Glossary On
Versions: 1 2 3 4 5 6 7 8 9 10 11 12 13 14 15 16 17 18 19 20 21 22 23 24 25 26 27 28 29 30 31 32 33 34 35 36 37 38 39 40 41 42 43 44 45 46 47 48 49 50
667
ASUS41 KRLX 081610
RWRRLX
West Virginia Regional Weather Roundup
National Weather Service Charleston WV
1100 AM EST MON FEB 08 2016

Note: "fair" indicates few or no clouds below 12,000 feet with no
significant weather and/or obstructions to visibility.

WVZ003-081700-
Northern Panhandle of West Virginia

CITY           SKY/WX    TMP DP  RH WIND       PRES   REMARKS
WHEELING       CLOUDY    42  23  46 S7        29.60F
$$

WVZ009-081700-
Northwest West Virginia

CITY           SKY/WX    TMP DP  RH WIND       PRES   REMARKS
PARKERSBURG    LGT RAIN  35  33  92 S7        29.67F
$$

WVZ006-081700-
Western West Virginia

CITY           SKY/WX    TMP DP  RH WIND       PRES   REMARKS
HUNTINGTON     CLOUDY    39  35  86 SW7       29.67R
$$

WVZ015-081700-
West Central West Virginia

CITY           SKY/WX    TMP DP  RH WIND       PRES   REMARKS
CHARLESTON     CLOUDY    41  28  60 W5        29.66S
$$

WVZ022-031-081700-
North Central West Virginia

CITY           SKY/WX    TMP DP  RH WIND       PRES   REMARKS
CLARKSBURG     CLOUDY    42  28  57 CALM      29.63F
MORGANTOWN     CLOUDY    43  22  43 SE9       29.64F
$$

WVZ025-035-042-045-081700-
Southern West Virginia

CITY           SKY/WX    TMP DP  RH WIND       PRES   REMARKS
BECKLEY        LGT SNOW  36  25  64 SW9G23    29.65S
LOGAN          CLOUDY    41  27  56 VRB5G14   29.65S
BLUEFIELD      CLOUDY    36  21  54 SW8       29.66F
LEWISBURG      CLOUDY    36  28  72 CALM      29.68S
$$

WVZ047-081700-
Northern Mountains of West Virginia

CITY           SKY/WX    TMP DP  RH WIND       PRES   REMARKS
ELKINS         CLOUDY    34  26  72 CALM      29.65F
$$

WVZ052-081700-
Eastern Panhandle of West Virginia

CITY           SKY/WX    TMP DP  RH WIND       PRES   REMARKS
MARTINSBURG      N/A     39  22  50 SE7       29.76F
PETERSBURG       N/A     37  28  72 CALM      29.74F
$$




USA.gov is the U.S. government's official web portal to all federal, state and local government web resources and services.